Вернуться в каталог

MIDAS 5

STRONGBACK

АктивенВоенныеPO
NORAD 271·PAYLOAD·🇺🇸 United States

Запущен Apr 9, 1962 с Vandenberg Space Force Base

Loading…

Ближайшие Пролёты (ближайшие 24 часа)

TLE

СвежийSource: Space-Track

Эпоха: Sep 7, 2026, 00:58 UTC

1 00271U 62010A   26250.04051538  .00000008  00000-0  10606-2 0  9993
2 00271  86.6586 303.9773 0326929 289.1443  67.4342  9.41308703213372

Отслеживайте MIDAS 5 в реальном времени с AllMySat

Download on the App Store